• MPC Preparation (Info)

  • MPEC 2015-F52 : 2015 FY33

    The following Minor Planet Electronic Circular may be linked-to from your own Web pages, but must not otherwise be redistributed electronically.

    A form allowing access to any MPEC is at the bottom of this page.


    Read MPEC 2015-F51 Read MPEC 2015-F53


    M.P.E.C. 2015-F52                                Issued 2015 Mar. 21, 22:02 UT
    
         The Minor Planet Electronic Circulars contain information on unusual
             minor planets and routine data on comets.  They are published
       on behalf of Commission 20 of the International Astronomical Union by the
              Minor Planet Center, Smithsonian Astrophysical Observatory,
                              Cambridge, MA 02138, U.S.A.
    
                 Prepared using the Tamkin Foundation Computer Network
    
                                  MPC@CFA.HARVARD.EDU
                URL https://www.minorplanetcenter.net/    ISSN 1523-6714
    
                                       2015 FY33
    
    Observations:
         K15F33Y* C2015 03 19.35405 10 00 16.556-01 51 06.62         20.7 wLEF052F51
         K15F33Y  C2015 03 19.36699 10 00 17.933-01 49 58.88         20.8 wLEF052F51
         K15F33Y  C2015 03 19.39289 10 00 20.682-01 47 43.59         21.0 wLEF052F51
         K15F33Y _C2015 03 20.31597910 02 11.199-00 27 19.27         19.8 RtEF052568
         K15F33Y _C2015 03 20.31728110 02 11.349-00 27 12.51         19.9 RtEF052568
         K15F33Y _C2015 03 20.31859210 02 11.487-00 27 05.73         20.0 RtEF052568
         K15F33Y _C2015 03 20.31988810 02 11.630-00 26 58.86         20.1 RtEF052568
         K15F33Y _C2015 03 20.32119210 02 11.777-00 26 52.17         19.7 RtEF052568
         K15F33Y  C2015 03 20.34406 10 02 14.317-00 24 52.23         20.7 wLEF052F51
         K15F33Y  C2015 03 20.35676 10 02 15.714-00 23 45.53         20.8 wLEF052F51
         K15F33Y  C2015 03 20.36944 10 02 17.092-00 22 39.49         20.9 wLEF052F51
         K15F33Y KC2015 03 21.03454 10 03 37.57 +00 35 14.0                qEF052J95
         K15F33Y KC2015 03 21.03932 10 03 38.15 +00 35 39.2          20.1 RqEF052J95
         K15F33Y KC2015 03 21.25425 10 04 05.27 +00 54 33.6          20.4 RoEF052291
         K15F33Y KC2015 03 21.25506 10 04 05.36 +00 54 37.9          20.3 RoEF052291
         K15F33Y KC2015 03 21.25589 10 04 05.42 +00 54 42.1          20.6 RoEF052291
         K15F33Y  C2015 03 21.37822 10 04 20.670+01 05 28.52         20.8 wLEF052F51
         K15F33Y  C2015 03 21.39084 10 04 22.098+01 06 34.82         20.7 wLEF052F51
         K15F33Y  C2015 03 21.40341 10 04 23.502+01 07 40.76         20.5 wLEF052F51
         K15F33Y  C2015 03 21.41591 10 04 24.930+01 08 46.12         20.7 wLEF052F51
    
    Observer details:
    291 LPL/Spacewatch II.  Observer R. A. Mastaler.  1.8-m f/2.7 reflector + CCD.
    568 Mauna Kea.  Observers R. J. Wainscoat, P. Forshay.  Measurers M. Micheli,
        R. J. Wainscoat.  3.6-m Canada-France-Hawaii Telescope + CCD.
    F51 Pan-STARRS 1, Haleakala.  Observers B. Gibson, T. Goggia, N. Primak,
        A. Schultz, M. Willman.  Measurers K. Chambers, S. Chastel, L. Denneau,
        H. Flewelling, M. Huber, E. Magnier, E. Schunova, R. Wainscoat, C. Waters,
        R. Weryk.  1.8-m Ritchey-Chretien + CCD.
    J95 Great Shefford.  Observer P. Birtwhistle.  0.40-m f/6.0 Schmidt-Cassegrain
        + CCD.
    
    Orbital elements:
    2015 FY33                                                Earth MOID = 0.2759 AU
    Epoch 2015 June 27.0 TT = JDT 2457200.5                 MPC
    M  23.26782              (2000.0)            P               Q
    n   0.26195247     Peri.    1.87673     -0.99986163     +0.01365316
    a   2.4191031      Node   178.77764     -0.01313607     -0.99853463
    e   0.4743860      Incl.   26.45392     +0.01020605     +0.05236579
    P   3.76           H   21.5           G   0.15           U   8
    Residuals in seconds of arc
    150319 F51  0.0   0.3-    150320 568  0.0   0.6-    150321 291  0.0   0.2+
    150319 F51  0.1+  0.0     150320 F51  0.2+  0.0     150321 291  0.5-  0.0
    150319 F51  0.1+  0.2+    150320 F51  0.3+  0.2+    150321 F51  0.4+  0.2-
    150320 568  0.1-  0.4-    150320 F51  0.1+  0.1-    150321 F51  0.4+  0.0
    150320 568  0.0   0.4-    150321 J95  0.2-  0.0     150321 F51  0.0   0.0
    150320 568  0.1-  0.5-    150321 J95  0.1+  0.1+    150321 F51  0.1+  0.2-
    150320 568  0.1-  0.4-    150321 291  0.1+  0.1+
    
    Ephemeris:
    2015 FY33                a,e,i = 2.42, 0.47, 26                  q = 1.2715
    Date    TT    R. A. (2000) Decl.     Delta      r     Elong.  Phase     V
    2015 02 19    09 27 54.6 -31 00 58   0.4325  1.3353   136.4    30.7    21.6
    ...
    2015 03 06    09 39 40.0 -19 11 10   0.3457  1.2964   147.3    24.4    20.9
    ...
    2015 03 14    09 50 42.9 -09 23 29   0.3182  1.2828   151.6    21.7    20.6
    ...
    2015 03 20    10 01 32.7 -00 54 46   0.3094  1.2760   151.4    21.9    20.5
    2015 03 21    10 03 34.0 +00 32 31   0.3090  1.2751   151.0    22.2    20.5
    2015 03 22    10 05 38.8 +01 59 54   0.3090  1.2744   150.6    22.6    20.6
    ...
    2015 03 28    10 19 21.1 +10 33 19   0.3153  1.2717   146.1    26.0    20.7
    ...
    2015 04 05    10 40 23.5 +20 34 04   0.3399  1.2730   137.9    31.8    21.0
    ...
    2015 04 20    11 24 27.5 +32 42 36   0.4232  1.2901   124.1    40.2    21.8
    
    A. U. Tomatic                (C) Copyright 2015 MPC           M.P.E.C. 2015-F52
    

    Read MPEC 2015-F51 Read MPEC 2015-F53


    MPEC number:

    Enter an MPEC number in one of the following forms:

    • 1997-B01 (the full form)
    • J97B01 (the packed version of the full form)
    • B01 (the abbreviated form)